| time (UTC) | temp F | wind direction | speed knots | gust knots | rain 1hr in | rain 24hr in | rain mn in | humidity % | barometer mb |
| 20260507062204 | 56 | 107 | 3.5 | 6.1 | 0.00 | 0.00 | 0.00 | 83 | 1008.5 |
| 20260507061205 | 56 | 105 | 3.5 | 5.2 | 0.00 | 0.00 | 0.00 | 83 | 1008.4 |
| 20260507060704 | 56 | 90 | 3.5 | 5.2 | 0.00 | 0.00 | 0.00 | 83 | 1008.4 |
| 20260507060205 | 56 | 109 | 2.6 | 4.3 | 0.00 | 0.00 | 0.00 | 83 | 1008.4 |
| 20260507055705 | 55 | 98 | 1.7 | 4.3 | 0.00 | 0.00 | 0.00 | 84 | 1008.3 |
| 20260507055205 | 55 | 80 | 1.7 | 4.3 | 0.00 | 0.00 | 0.00 | 84 | 1008.3 |
| 20260507054705 | 55 | 96 | 1.7 | 4.3 | 0.00 | 0.00 | 0.00 | 84 | 1008.2 |
| 20260507054205 | 55 | 91 | 1.7 | 4.3 | 0.00 | 0.00 | 0.00 | 84 | 1008.2 |
| 20260507053704 | 55 | 91 | 2.6 | 4.3 | 0.00 | 0.00 | 0.00 | 84 | 1008.2 |
| 20260507053204 | 55 | 103 | 1.7 | 4.3 | 0.00 | 0.00 | 0.00 | 84 | 1008.1 |
| 20260507052705 | 55 | 224 | 1.7 | 3.5 | 0.00 | 0.00 | 0.00 | 84 | 1008.2 |
| 20260507052205 | 55 | 53 | 0.9 | 3.5 | 0.00 | 0.00 | 0.00 | 84 | 1008.2 |
| 20260507051705 | 55 | 121 | 0.9 | 1.7 | 0.00 | 0.00 | 0.00 | 84 | 1008.2 |
| 20260507051205 | 55 | 121 | 0.0 | 1.7 | 0.00 | 0.00 | 0.00 | 84 | 1008.3 |
| 20260507050705 | 55 | 121 | 0.0 | 1.7 | 0.00 | 0.00 | 0.00 | 84 | 1008.3 |
| 20260507050205 | 55 | 121 | 0.0 | 1.7 | 0.00 | 0.00 | 0.00 | 83 | 1008.3 |
| 20260507045705 | 55 | 121 | 0.0 | 1.7 | 0.00 | 0.00 | 0.00 | 83 | 1008.3 |
| 20260507045205 | 55 | 121 | 0.0 | 3.5 | 0.00 | 0.00 | 0.00 | 83 | 1008.3 |
| 20260507044705 | 55 | 121 | 0.9 | 4.3 | 0.00 | 0.00 | 0.00 | 83 | 1008.1 |
| 20260507043705 | 55 | 130 | 2.6 | 5.2 | 0.00 | 0.00 | 0.00 | 83 | 1008.1 |
| 20260507043205 | 55 | 135 | 2.6 | 5.2 | 0.00 | 0.00 | 0.00 | 82 | 1007.9 |
| 20260507041705 | 55 | 157 | 3.5 | 6.1 | 0.00 | 0.00 | 0.00 | 82 | 1007.9 |
| 20260507041204 | 55 | 147 | 2.6 | 5.2 | 0.00 | 0.00 | 0.00 | 82 | 1007.8 |
| 20260507040705 | 55 | 132 | 2.6 | 5.2 | 0.00 | 0.00 | 0.00 | 82 | 1007.8 |
| 20260507040205 | 55 | 144 | 2.6 | 5.2 | 0.00 | 0.00 | 0.00 | 82 | 1007.7 |
| 20260507035705 | 55 | 139 | 2.6 | 4.3 | 0.00 | 0.00 | 0.00 | 82 | 1007.7 |
| 20260507035205 | 55 | 128 | 2.6 | 4.3 | 0.00 | 0.00 | 0.00 | 82 | 1007.7 |
| 20260507034204 | 55 | 123 | 1.7 | 4.3 | 0.00 | 0.00 | 0.00 | 82 | 1007.7 |
| 20260507033704 | 54 | 112 | 2.6 | 4.3 | 0.00 | 0.00 | 0.00 | 82 | 1007.8 |
| 20260507033205 | 55 | 105 | 2.6 | 3.5 | 0.00 | 0.00 | 0.00 | 81 | 1007.6 |
| 20260507032706 | 55 | 105 | 1.7 | 3.5 | 0.00 | 0.00 | 0.00 | 81 | 1007.6 |
| 20260507032204 | 55 | 105 | 1.7 | 3.5 | 0.00 | 0.00 | 0.00 | 81 | 1007.8 |
| 20260507031705 | 55 | 113 | 1.7 | 3.5 | 0.00 | 0.00 | 0.00 | 80 | 1007.8 |
| 20260507031205 | 55 | 97 | 1.7 | 3.5 | 0.00 | 0.00 | 0.00 | 80 | 1007.8 |
| 20260507030704 | 55 | 93 | 1.7 | 1.7 | 0.00 | 0.00 | 0.00 | 80 | 1007.8 |
| 20260507030205 | 55 | 93 | 0.9 | 1.7 | 0.00 | 0.00 | 0.00 | 80 | 1007.7 |
| 20260507025704 | 55 | 93 | 0.9 | 3.5 | 0.00 | 0.00 | 0.00 | 80 | 1007.7 |
| 20260507025204 | 55 | 93 | 0.9 | 3.5 | 0.00 | 0.00 | 0.00 | 79 | 1007.7 |
| 20260507024204 | 56 | 93 | 0.9 | 4.3 | 0.00 | 0.00 | 0.00 | 79 | 1007.6 |
| 20260507023705 | 56 | 98 | 0.9 | 4.3 | 0.00 | 0.00 | 0.00 | 78 | 1007.6 |
| 20260507023205 | 56 | 139 | 0.9 | 4.3 | 0.00 | 0.00 | 0.00 | 79 | 1007.6 |
| 20260507022704 | 56 | 146 | 1.7 | 4.3 | 0.00 | 0.00 | 0.00 | 79 | 1007.6 |
| 20260507022207 | 56 | 170 | 1.7 | 3.5 | 0.00 | 0.00 | 0.00 | 79 | 1007.6 |
| 20260507021721 | 56 | 145 | 1.7 | 4.3 | 0.00 | 0.00 | 0.00 | 79 | 1007.6 |
| 20260507021205 | 56 | 147 | 1.7 | 4.3 | 0.00 | 0.00 | 0.00 | 79 | 1007.7 |
| 20260507020205 | 56 | 161 | 1.7 | 5.2 | 0.00 | 0.00 | 0.00 | 79 | 1007.7 |
| 20260507015705 | 56 | 165 | 0.9 | 5.2 | 0.00 | 0.00 | 0.00 | 80 | 1007.7 |
| 20260507014705 | 56 | 170 | 2.6 | 7.0 | 0.00 | 0.00 | 0.00 | 79 | 1007.8 |
| 20260507013704 | 56 | 178 | 3.5 | 7.0 | 0.00 | 0.00 | 0.00 | 79 | 1007.9 |
| 20260507012705 | 56 | 168 | 2.6 | 6.1 | 0.00 | 0.00 | 0.00 | 79 | 1007.9 |
| 20260507012204 | 56 | 167 | 2.6 | 5.2 | 0.00 | 0.00 | 0.00 | 80 | 1007.9 |
| 20260507011705 | 56 | 168 | 2.6 | 5.2 | 0.00 | 0.00 | 0.00 | 80 | 1008.0 |
| 20260507011205 | 55 | 173 | 2.6 | 3.5 | 0.00 | 0.00 | 0.00 | 79 | 1008.0 |
| 20260507010705 | 56 | 182 | 1.7 | 4.3 | 0.00 | 0.00 | 0.00 | 79 | 1008.0 |
| 20260507010205 | 56 | 184 | 1.7 | 4.3 | 0.00 | 0.00 | 0.00 | 79 | 1008.0 |
| 20260507005705 | 55 | 195 | 1.7 | 2.6 | 0.00 | 0.00 | 0.00 | 79 | 1008.0 |
| 20260507005204 | 55 | 190 | 0.9 | 3.5 | 0.00 | 0.00 | 0.00 | 80 | 1008.2 |
| 20260507004705 | 55 | 217 | 0.9 | 3.5 | 0.00 | 0.00 | 0.00 | 79 | 1008.2 |
| 20260507003705 | 55 | 202 | 1.7 | 5.2 | 0.00 | 0.00 | 0.00 | 79 | 1008.1 |
| 20260507003204 | 55 | 192 | 2.6 | 5.2 | 0.00 | 0.00 | 0.00 | 79 | 1008.2 |
| 20260507002705 | 56 | 219 | 2.6 | 5.2 | 0.00 | 0.00 | 0.00 | 79 | 1008.3 |
| 20260507002205 | 56 | 194 | 2.6 | 6.1 | 0.00 | 0.00 | 0.00 | 79 | 1008.3 |
| 20260507001205 | 56 | 182 | 2.6 | 6.1 | 0.00 | 0.00 | 0.00 | 79 | 1008.3 |
| 20260507000704 | 56 | 191 | 2.6 | 6.1 | 0.00 | 0.00 | 0.00 | 79 | 1008.4 |
| 20260507000205 | 56 | 197 | 3.5 | 6.1 | 0.00 | 0.00 | 0.00 | 79 | 1008.5 |
| 20260506235705 | 56 | 201 | 3.5 | 5.2 | 0.00 | 0.00 | 0.00 | 79 | 1008.5 |
| 20260506235204 | 56 | 192 | 3.5 | 4.3 | 0.00 | 0.00 | 0.00 | 79 | 1008.5 |
| 20260506234705 | 56 | 178 | 2.6 | 3.5 | 0.00 | 0.00 | 0.00 | 79 | 1008.5 |
| 20260506234205 | 56 | 190 | 2.6 | 3.5 | 0.00 | 0.00 | 0.00 | 80 | 1008.5 |
| 20260506233705 | 56 | 185 | 2.6 | 3.5 | 0.00 | 0.00 | 0.00 | 80 | 1008.5 |
| 20260506233205 | 56 | 192 | 2.6 | 4.3 | 0.00 | 0.00 | 0.00 | 80 | 1008.5 |
| 20260506232705 | 56 | 210 | 2.6 | 4.3 | 0.00 | 0.00 | 0.00 | 80 | 1008.5 |
| 20260506232204 | 56 | 210 | 2.6 | 4.3 | 0.00 | 0.00 | 0.00 | 79 | 1008.5 |
| 20260506231704 | 56 | 205 | 2.6 | 5.2 | 0.00 | 0.00 | 0.00 | 79 | 1008.7 |
| 20260506231204 | 56 | 202 | 3.5 | 5.2 | 0.00 | 0.00 | 0.00 | 78 | 1008.5 |
| 20260506230704 | 56 | 195 | 2.6 | 5.2 | 0.00 | 0.00 | 0.00 | 78 | 1008.6 |
| 20260506225704 | 56 | 189 | 3.5 | 4.3 | 0.00 | 0.00 | 0.00 | 77 | 1008.7 |
| 20260506225204 | 56 | 191 | 3.5 | 4.3 | 0.00 | 0.00 | 0.00 | 76 | 1008.7 |
| 20260506224705 | 56 | 189 | 3.5 | 4.3 | 0.00 | 0.00 | 0.00 | 74 | 1008.7 |
| 20260506224204 | 56 | 184 | 3.5 | 4.3 | 0.00 | 0.00 | 0.00 | 74 | 1008.8 |
| 20260506223705 | 56 | 190 | 2.6 | 4.3 | 0.00 | 0.00 | 0.00 | 73 | 1008.8 |
| 20260506223205 | 56 | 186 | 2.6 | 4.3 | 0.00 | 0.00 | 0.00 | 73 | 1008.8 |
| 20260506222206 | 56 | 193 | 3.5 | 4.3 | 0.00 | 0.00 | 0.00 | 71 | 1008.7 |
| 20260506221705 | 56 | 195 | 3.5 | 4.3 | 0.00 | 0.00 | 0.00 | 70 | 1008.6 |
| 20260506221204 | 57 | 212 | 3.5 | 4.3 | 0.00 | 0.00 | 0.00 | 70 | 1008.6 |
| 20260506220705 | 57 | 196 | 3.5 | 4.3 | 0.00 | 0.00 | 0.00 | 69 | 1008.5 |
| 20260506220205 | 57 | 193 | 2.6 | 4.3 | 0.00 | 0.00 | 0.00 | 68 | 1008.5 |
| 20260506214705 | 59 | 240 | 2.6 | 4.3 | 0.00 | 0.00 | 0.00 | 65 | 1008.6 |
| 20260506214205 | 59 | 245 | 2.6 | 4.3 | 0.00 | 0.00 | 0.00 | 64 | 1008.6 |
| 20260506213205 | 60 | 270 | 2.6 | 6.1 | 0.00 | 0.00 | 0.00 | 63 | 1008.5 |
| 20260506212704 | 60 | 279 | 3.5 | 6.1 | 0.00 | 0.00 | 0.00 | 63 | 1008.4 |
| 20260506212205 | 60 | 275 | 3.5 | 6.1 | 0.00 | 0.00 | 0.00 | 63 | 1008.5 |
| 20260506211705 | 60 | 288 | 3.5 | 5.2 | 0.00 | 0.00 | 0.00 | 63 | 1008.3 |
| 20260506210705 | 60 | 283 | 3.5 | 6.1 | 0.00 | 0.00 | 0.00 | 62 | 1008.3 |
| 20260506210205 | 60 | 278 | 3.5 | 6.1 | 0.00 | 0.00 | 0.00 | 62 | 1008.4 |
| 20260506205204 | 60 | 273 | 3.5 | 6.1 | 0.00 | 0.00 | 0.00 | 62 | 1008.3 |
| 20260506204704 | 60 | 274 | 3.5 | 6.1 | 0.00 | 0.00 | 0.00 | 62 | 1008.3 |
| 20260506204205 | 60 | 270 | 3.5 | 5.2 | 0.00 | 0.00 | 0.00 | 61 | 1008.2 |
| 20260506203705 | 60 | 275 | 3.5 | 5.2 | 0.00 | 0.00 | 0.00 | 61 | 1008.2 |
| 20260506202706 | 61 | 268 | 3.5 | 6.1 | 0.00 | 0.00 | 0.00 | 61 | 1008.2 |
| 20260506202204 | 61 | 263 | 4.3 | 6.1 | 0.00 | 0.00 | 0.00 | 60 | 1008.1 |
| 20260506201705 | 61 | 266 | 4.3 | 6.1 | 0.00 | 0.00 | 0.00 | 59 | 1008.1 |
| 20260506201205 | 61 | 258 | 3.5 | 5.2 | 0.00 | 0.00 | 0.00 | 59 | 1008.2 |
| 20260506200705 | 62 | 265 | 4.3 | 5.2 | 0.00 | 0.00 | 0.00 | 58 | 1008.3 |
| 20260506200205 | 62 | 263 | 4.3 | 6.1 | 0.00 | 0.00 | 0.00 | 58 | 1008.2 |
| 20260506195204 | 63 | 274 | 4.3 | 7.0 | 0.00 | 0.00 | 0.00 | 57 | 1008.1 |
| 20260506194704 | 63 | 247 | 4.3 | 7.0 | 0.00 | 0.00 | 0.00 | 56 | 1007.8 |
| 20260506194222 | 64 | 271 | 4.3 | 7.0 | 0.00 | 0.00 | 0.00 | 55 | 1007.8 |
| 20260506193705 | 64 | 261 | 4.3 | 8.7 | 0.00 | 0.00 | 0.00 | 54 | 1007.7 |
| 20260506192705 | 65 | 254 | 5.2 | 8.7 | 0.00 | 0.00 | 0.00 | 52 | 1007.7 |
| 20260506192205 | 65 | 257 | 4.3 | 7.8 | 0.00 | 0.00 | 0.00 | 52 | 1007.7 |
| 20260506191204 | 66 | 233 | 4.3 | 9.6 | 0.00 | 0.00 | 0.00 | 51 | 1007.7 |
| 20260506190705 | 66 | 282 | 5.2 | 9.6 | 0.00 | 0.00 | 0.00 | 51 | 1007.6 |
| 20260506190205 | 67 | 178 | 5.2 | 9.6 | 0.00 | 0.00 | 0.00 | 50 | 1007.6 |
| 20260506185704 | 67 | 211 | 5.2 | 10.4 | 0.00 | 0.00 | 0.00 | 50 | 1007.6 |
| 20260506185204 | 67 | 256 | 5.2 | 10.4 | 0.00 | 0.00 | 0.00 | 50 | 1007.6 |
| 20260506184705 | 68 | 281 | 6.1 | 11.3 | 0.00 | 0.00 | 0.00 | 50 | 1007.4 |
| 20260506184205 | 68 | 268 | 6.1 | 11.3 | 0.00 | 0.00 | 0.00 | 49 | 1007.3 |
| 20260506183705 | 68 | 267 | 6.1 | 11.3 | 0.00 | 0.00 | 0.00 | 49 | 1007.3 |
| 20260506183205 | 69 | 257 | 6.1 | 11.3 | 0.00 | 0.00 | 0.00 | 47 | 1007.5 |
| 20260506182705 | 69 | 266 | 6.1 | 12.2 | 0.00 | 0.00 | 0.00 | 46 | 1007.6 |
| 20260506182204 | 69 | 230 | 7.0 | 12.2 | 0.00 | 0.00 | 0.00 | 46 | 1007.6 |
| 20260506181704 | 70 | 248 | 7.8 | 13.9 | 0.00 | 0.00 | 0.00 | 46 | 1007.6 |
| 20260506181204 | 70 | 225 | 7.0 | 13.9 | 0.00 | 0.00 | 0.00 | 45 | 1007.4 |
| 20260506180705 | 71 | 243 | 7.0 | 13.9 | 0.00 | 0.00 | 0.00 | 45 | 1007.4 |
| 20260506180205 | 71 | 252 | 6.1 | 12.2 | 0.00 | 0.00 | 0.00 | 44 | 1007.5 |
| 20260506175705 | 71 | 265 | 6.1 | 12.2 | 0.00 | 0.00 | 0.00 | 44 | 1007.5 |
| 20260506175205 | 71 | 290 | 7.0 | 12.2 | 0.00 | 0.00 | 0.00 | 43 | 1007.6 |
| 20260506174704 | 71 | 235 | 7.0 | 12.2 | 0.00 | 0.00 | 0.00 | 42 | 1007.5 |
| 20260506174205 | 72 | 256 | 7.0 | 12.2 | 0.00 | 0.00 | 0.00 | 42 | 1007.5 |
| 20260506173705 | 72 | 251 | 7.0 | 12.2 | 0.00 | 0.00 | 0.00 | 40 | 1007.4 |
| 20260506173205 | 72 | 250 | 7.0 | 12.2 | 0.00 | 0.00 | 0.00 | 41 | 1007.4 |
| 20260506172705 | 72 | 240 | 6.1 | 12.2 | 0.00 | 0.00 | 0.00 | 40 | 1007.4 |
| 20260506172205 | 73 | 206 | 7.0 | 12.2 | 0.00 | 0.00 | 0.00 | 40 | 1007.5 |
| 20260506171705 | 73 | 254 | 7.0 | 13.9 | 0.00 | 0.00 | 0.00 | 39 | 1007.6 |
| 20260506171204 | 73 | 225 | 7.0 | 13.9 | 0.00 | 0.00 | 0.00 | 39 | 1007.7 |
| 20260506170704 | 73 | 269 | 7.0 | 14.8 | 0.00 | 0.00 | 0.00 | 39 | 1007.6 |
| 20260506170205 | 73 | 223 | 7.8 | 14.8 | 0.00 | 0.00 | 0.00 | 39 | 1007.6 |
| 20260506165205 | 73 | 227 | 8.7 | 13.9 | 0.00 | 0.00 | 0.00 | 38 | 1007.6 |
| 20260506164705 | 73 | 218 | 8.7 | 13.9 | 0.00 | 0.00 | 0.00 | 38 | 1007.6 |
| 20260506164204 | 73 | 229 | 7.8 | 15.6 | 0.00 | 0.00 | 0.00 | 38 | 1007.6 |
| 20260506163704 | 74 | 228 | 7.8 | 15.6 | 0.00 | 0.00 | 0.00 | 38 | 1007.7 |
| 20260506163205 | 74 | 240 | 8.7 | 15.6 | 0.00 | 0.00 | 0.00 | 38 | 1007.6 |
| 20260506162705 | 74 | 200 | 8.7 | 14.8 | 0.00 | 0.00 | 0.00 | 38 | 1007.8 |
| 20260506162223 | 75 | 229 | 7.8 | 13.9 | 0.00 | 0.00 | 0.00 | 38 | 1007.8 |
| 20260506161705 | 75 | 240 | 7.0 | 13.9 | 0.00 | 0.00 | 0.00 | 38 | 1007.8 |
| 20260506161209 | 76 | 247 | 7.8 | 13.9 | 0.00 | 0.00 | 0.00 | 38 | 1007.7 |
| 20260506160705 | 76 | 276 | 7.0 | 13.9 | 0.00 | 0.00 | 0.00 | 37 | 1007.6 |
| 20260506160222 | 76 | 167 | 5.2 | 13.0 | 0.00 | 0.00 | 0.00 | 37 | 1007.7 |
| 20260506155723 | 76 | 155 | 4.3 | 9.6 | 0.00 | 0.00 | 0.00 | 36 | 1007.8 |
| 20260506155204 | 76 | 210 | 4.3 | 14.8 | 0.00 | 0.00 | 0.00 | 35 | 1007.9 |
| 20260506154705 | 76 | 265 | 4.3 | 14.8 | 0.00 | 0.00 | 0.00 | 33 | 1007.9 |
| 20260506153704 | 75 | 167 | 5.2 | 10.4 | 0.00 | 0.00 | 0.00 | 33 | 1007.9 |
| 20260506152705 | 76 | 291 | 2.6 | 6.1 | 0.00 | 0.00 | 0.00 | 31 | 1008.0 |
| 20260506152205 | 76 | 208 | 1.7 | 5.2 | 0.00 | 0.00 | 0.00 | 30 | 1008.1 |
| 20260506151705 | 76 | 62 | 1.7 | 5.2 | 0.00 | 0.00 | 0.00 | 29 | 1008.2 |
| 20260506151205 | 76 | 290 | 2.6 | 6.1 | 0.00 | 0.00 | 0.00 | 30 | 1008.3 |
| 20260506150706 | 76 | 355 | 2.6 | 7.8 | 0.00 | 0.00 | 0.00 | 28 | 1008.3 |
| 20260506150205 | 76 | 331 | 2.6 | 7.8 | 0.00 | 0.00 | 0.00 | 31 | 1008.4 |
| 20260506145204 | 75 | 99 | 3.5 | 7.8 | 0.00 | 0.00 | 0.00 | 29 | 1008.4 |
| 20260506144705 | 75 | 210 | 4.3 | 8.7 | 0.00 | 0.00 | 0.00 | 32 | 1008.5 |
| 20260506144205 | 75 | 248 | 4.3 | 8.7 | 0.00 | 0.00 | 0.00 | 32 | 1008.7 |
| 20260506143704 | 75 | 250 | 4.3 | 8.7 | 0.00 | 0.00 | 0.00 | 31 | 1008.7 |
| 20260506143204 | 75 | 270 | 2.6 | 8.7 | 0.00 | 0.00 | 0.00 | 31 | 1008.7 |
| 20260506142705 | 75 | 61 | 2.6 | 8.7 | 0.00 | 0.00 | 0.00 | 30 | 1008.7 |
| 20260506142205 | 75 | 227 | 4.3 | 8.7 | 0.00 | 0.00 | 0.00 | 30 | 1008.9 |
| 20260506141705 | 75 | 269 | 4.3 | 7.0 | 0.00 | 0.00 | 0.00 | 31 | 1009.1 |
| 20260506141205 | 75 | 260 | 2.6 | 7.0 | 0.00 | 0.00 | 0.00 | 32 | 1009.2 |
| 20260506140704 | 74 | 355 | 2.6 | 7.8 | 0.00 | 0.00 | 0.00 | 32 | 1009.1 |
| 20260506140205 | 74 | 330 | 4.3 | 9.6 | 0.00 | 0.00 | 0.00 | 32 | 1009.2 |
| 20260506135704 | 74 | 277 | 5.2 | 9.6 | 0.00 | 0.00 | 0.00 | 33 | 1009.2 |
| 20260506135204 | 74 | 264 | 3.5 | 8.7 | 0.00 | 0.00 | 0.00 | 35 | 1009.2 |
| 20260506134705 | 74 | 184 | 3.5 | 8.7 | 0.00 | 0.00 | 0.00 | 35 | 1009.2 |
| 20260506134204 | 74 | 326 | 4.3 | 8.7 | 0.00 | 0.00 | 0.00 | 33 | 1009.3 |
| 20260506133705 | 74 | 262 | 3.5 | 6.1 | 0.00 | 0.00 | 0.00 | 34 | 1009.2 |
| 20260506133206 | 74 | 288 | 1.7 | 9.6 | 0.00 | 0.00 | 0.00 | 33 | 1009.3 |
| 20260506132705 | 74 | 322 | 3.5 | 10.4 | 0.00 | 0.00 | 0.00 | 34 | 1009.4 |
| 20260506132204 | 73 | 195 | 5.2 | 10.4 | 0.00 | 0.00 | 0.00 | 35 | 1009.5 |
| 20260506131705 | 74 | 225 | 4.3 | 10.4 | 0.00 | 0.00 | 0.00 | 34 | 1009.6 |
| 20260506131205 | 73 | 217 | 2.6 | 8.7 | 0.00 | 0.00 | 0.00 | 37 | 1009.6 |
| 20260506130704 | 73 | 155 | 3.5 | 9.6 | 0.00 | 0.00 | 0.00 | 36 | 1009.7 |
| 20260506130205 | 73 | 123 | 4.3 | 9.6 | 0.00 | 0.00 | 0.00 | 37 | 1009.7 |
| 20260506125704 | 73 | 192 | 4.3 | 9.6 | 0.00 | 0.00 | 0.00 | 35 | 1009.7 |
| 20260506125204 | 74 | 149 | 4.3 | 7.8 | 0.00 | 0.00 | 0.00 | 36 | 1009.9 |
| 20260506124705 | 73 | 171 | 3.5 | 7.0 | 0.00 | 0.00 | 0.00 | 36 | 1009.8 |
| 20260506124204 | 73 | 57 | 3.5 | 7.0 | 0.00 | 0.00 | 0.00 | 38 | 1009.9 |
| 20260506123704 | 73 | 104 | 3.5 | 8.7 | 0.00 | 0.00 | 0.00 | 36 | 1009.8 |
| 20260506123205 | 73 | 59 | 3.5 | 8.7 | 0.00 | 0.00 | 0.00 | 36 | 1010.0 |
| 20260506122705 | 73 | 123 | 2.6 | 8.7 | 0.00 | 0.00 | 0.00 | 35 | 1010.1 |
| 20260506122205 | 73 | 30 | 1.7 | 7.8 | 0.00 | 0.00 | 0.00 | 37 | 1010.1 |
| 20260506121704 | 72 | 338 | 2.6 | 7.8 | 0.00 | 0.00 | 0.00 | 36 | 1010.2 |
| 20260506121205 | 72 | 296 | 3.5 | 7.8 | 0.00 | 0.00 | 0.00 | 38 | 1010.3 |
| 20260506115705 | 71 | 283 | 3.5 | 6.1 | 0.00 | 0.00 | 0.00 | 38 | 1010.5 |
| 20260506115205 | 71 | 308 | 2.6 | 6.1 | 0.00 | 0.00 | 0.00 | 37 | 1010.4 |
| 20260506114705 | 71 | 264 | 2.6 | 7.8 | 0.00 | 0.00 | 0.00 | 37 | 1010.5 |
| 20260506114205 | 71 | 270 | 3.5 | 7.8 | 0.00 | 0.00 | 0.00 | 38 | 1010.4 |
| 20260506113705 | 71 | 186 | 3.5 | 7.8 | 0.00 | 0.00 | 0.00 | 38 | 1010.5 |
| 20260506112705 | 71 | 188 | 2.6 | 6.1 | 0.00 | 0.00 | 0.00 | 39 | 1010.6 |
| 20260506112204 | 71 | 211 | 2.6 | 6.1 | 0.00 | 0.00 | 0.00 | 38 | 1010.6 |
| 20260506111705 | 71 | 177 | 1.7 | 4.3 | 0.00 | 0.00 | 0.00 | 39 | 1010.6 |
| 20260506111205 | 70 | 355 | 2.6 | 4.3 | 0.00 | 0.00 | 0.00 | 38 | 1010.6 |
| 20260506110704 | 70 | 72 | 3.5 | 5.2 | 0.00 | 0.00 | 0.00 | 39 | 1010.7 |
| 20260506110228 | 70 | 350 | 2.6 | 5.2 | 0.00 | 0.00 | 0.00 | 36 | 1010.7 |
| 20260506105704 | 71 | 338 | 2.6 | 6.1 | 0.00 | 0.00 | 0.00 | 36 | 1010.8 |
| 20260506105205 | 71 | 132 | 3.5 | 6.1 | 0.00 | 0.00 | 0.00 | 41 | 1010.8 |
| 20260506104705 | 70 | 145 | 3.5 | 6.1 | 0.00 | 0.00 | 0.00 | 41 | 1010.9 |
| 20260506103705 | 70 | 161 | 1.7 | 4.3 | 0.00 | 0.00 | 0.00 | 43 | 1011.0 |
| 20260506103205 | 69 | 285 | 1.7 | 6.1 | 0.00 | 0.00 | 0.00 | 43 | 1011.0 |
| 20260506102705 | 69 | 283 | 2.6 | 7.0 | 0.00 | 0.00 | 0.00 | 42 | 1011.0 |
| 20260506101704 | 69 | 48 | 1.7 | 7.0 | 0.00 | 0.00 | 0.00 | 45 | 1011.0 |
| 20260506101205 | 69 | 58 | 0.9 | 3.5 | 0.00 | 0.00 | 0.00 | 45 | 1011.1 |
| 20260506100234 | 68 | 32 | 0.9 | 6.1 | 0.00 | 0.00 | 0.00 | 46 | 1011.1 |
| 20260506095705 | 68 | 184 | 2.6 | 6.1 | 0.00 | 0.00 | 0.00 | 49 | 1011.1 |
| 20260506095204 | 67 | 163 | 2.6 | 6.1 | 0.00 | 0.00 | 0.00 | 47 | 1011.1 |
| 20260506094705 | 67 | 108 | 1.7 | 5.2 | 0.00 | 0.00 | 0.00 | 48 | 1010.9 |
| 20260506094205 | 66 | 72 | 1.7 | 5.2 | 0.00 | 0.00 | 0.00 | 50 | 1011.0 |
| 20260506093204 | 66 | 68 | 2.6 | 5.2 | 0.00 | 0.00 | 0.00 | 49 | 1011.0 |
| 20260506092705 | 66 | 81 | 2.6 | 6.1 | 0.00 | 0.00 | 0.00 | 50 | 1010.9 |
| 20260506092205 | 65 | 123 | 2.6 | 6.1 | 0.00 | 0.00 | 0.00 | 51 | 1010.9 |
| 20260506091705 | 65 | 74 | 3.5 | 6.1 | 0.00 | 0.00 | 0.00 | 51 | 1011.0 |
| 20260506091205 | 65 | 98 | 2.6 | 6.1 | 0.00 | 0.00 | 0.00 | 52 | 1010.9 |
| 20260506090705 | 65 | 115 | 2.6 | 6.1 | 0.00 | 0.00 | 0.00 | 51 | 1011.1 |
| 20260506090205 | 65 | 70 | 1.7 | 6.1 | 0.00 | 0.00 | 0.00 | 51 | 1011.0 |
| 20260506085204 | 64 | 0 | 1.7 | 6.1 | 0.00 | 0.00 | 0.00 | 53 | 1011.1 |
| 20260506084705 | 64 | 24 | 2.6 | 5.2 | 0.00 | 0.00 | 0.00 | 55 | 1011.1 |
| 20260506083705 | 63 | 100 | 2.6 | 6.1 | 0.00 | 0.00 | 0.00 | 54 | 1011.1 |
| 20260506082705 | 63 | 68 | 2.6 | 6.1 | 0.00 | 0.00 | 0.00 | 56 | 1010.9 |
| 20260506082205 | 62 | 13 | 2.6 | 6.1 | 0.00 | 0.00 | 0.00 | 56 | 1011.0 |
| 20260506081705 | 62 | 9 | 3.5 | 6.1 | 0.00 | 0.00 | 0.00 | 56 | 1010.9 |
| 20260506080704 | 62 | 5 | 3.5 | 7.0 | 0.00 | 0.00 | 0.00 | 56 | 1011.0 |
| 20260506080205 | 63 | 75 | 3.5 | 7.0 | 0.00 | 0.00 | 0.00 | 55 | 1011.0 |
| 20260506072728 | 62 | 348 | 4.3 | 7.0 | 0.00 | 0.00 | 0.00 | 57 | 1011.0 |
| 20260506072204 | 62 | 0 | 3.5 | 7.0 | 0.00 | 0.00 | 0.00 | 57 | 1011.0 |
| 20260506071705 | 61 | 345 | 3.5 | 6.1 | 0.00 | 0.00 | 0.00 | 59 | 1011.0 |
| 20260506070705 | 60 | 20 | 3.5 | 6.1 | 0.00 | 0.00 | 0.00 | 63 | 1010.9 |
| 20260506070205 | 60 | 320 | 4.3 | 6.1 | 0.00 | 0.00 | 0.00 | 63 | 1010.9 |